Find Starlink 30161

NORAD ID: 57476 Int'l Des: 2023-107 Owner: SPXS Country: US Constellation: starlink operational
LEOCIRCULAR

現在のビュー

3D地球を読み込み中...

About Starlink 30161

Starlink 30161 (NORAD 57476) is a starlink constellation satellite (v2 mini) launched Jul 28, 2023 by SPXS of US. It operates in LEO, CIRCULAR orbit with a mass of 730.00 kg.

次回通過

Passes for default location (London). Set your location on the main map for personalized predictions.

高度履歴

Loading altitude history...

軌道要素

1 57476U 23107V 26237.79928351 .00001086 00000-0 48969-4 0 9991
2 57476 43.0039 100.7680 0001392 263.8486 96.2207 15.27579386171013
Epoch: Aug 25, 2026 • Age: 9 hours

現在のステータス

高度 483.6 km
遠地点 / 近地点 N/A
速度 7.63 km/s
衛星直下点 -6.15°S, 106.88°W
打ち上げ日 Jul 28, 2023
運用期間 3 years
タイプ internet

技術仕様

分類 Payload
質量 730.00 kg
乾燥質量 700.00 kg
総質量 730.00 kg
長さ 0.30 m
直径 4.10 m
スパン 29.00 m
形状 Box + pan
製造者 SPXS
バスタイプ Starlink V2M
フェーズステータス In Orbit
所有者/国 SPXS/US

Most Searched